Change the Weather History Date:

Thursday, June 20, 2013

  Actual Average (KDEN) Record (KDEN)
Temperature  
Mean Temperature 46 °F 69 °F  
Max Temperature 51 °F 84 °F 97 °F (1968)
Min Temperature 41 °F 54 °F 39 °F (1973)
Degree Days  
Heating Degree Days 19 1  
Month to date heating degree days 53  
Since 1 June heating degree days 53  
Since 1 July heating degree days 6049  
Cooling Degree Days 0 5  
Month to date cooling degree days 69  
Year to date cooling degree days 91  
Since 1 June cooling degree days 69  
Moisture  
Dew Point 11 °F    
Average Humidity 25    
Maximum Humidity 27    
Minimum Humidity 24    
Precipitation  
Precipitation 0.00 in 0.07 in 1.05 in (2011)
Month to date precipitation 1.38  
Year to date precipitation 6.91  
Snow  
Snow 0.00 in - - ()
Month to date snowfall  
Since 1 June snowfall  
Since 1 July snowfall  
Snow Depth -    
Sea Level Pressure  
Sea Level Pressure 30.45 in    
Wind  
Wind Speed 12 mph (SSE)    
Max Wind Speed 26 mph    
Max Gust Speed 34 mph    
Visibility 10 miles    
Events      
T = Trace of Precipitation, MM = Missing Value Source: NWS Daily Summary

Daily Weather History Graph

Daily Weather History Graph

Search for Another Location

Airport or City:

Trip Planner

Search our weather history database for the weather conditions in past years. The results will help you decide how hot, cold, wet, or windy it might be!

Date:

Astronomy

Jun. 20, 2013 Rise Set
Actual Time 5:34 AM MDT 8:34 PM MDT
Civil Twilight 5:02 AM MDT 9:07 PM MDT
Nautical Twilight 4:20 AM MDT 9:48 PM MDT
Astronomical Twilight 3:32 AM MDT 10:37 PM MDT
Moon 5:40 PM MDT (6/20) 3:03 AM MDT (6/20)
Length of Visible Light 16h 05m
Length of Day
14h 59m
Waxing Gibbous, 89% of the Moon is Illuminated
Jun 20
Waxing Gibbous
Jun 23
Full
Jun 29
Last Quarter
Jul 8
New
Jul 15
First Quarter

Hourly Weather History & Observations

Time (MDT) Temp. Windchill Dew Point Humidity Pressure Visibility Wind Dir Wind Speed Gust Speed Precip Events Conditions
12:15 AM 44.6 °F 38.1 °F 10.4 °F 25% 30.41 in 10.0 mi SSW 13.8 mph 18.4 mph N/A   Clear
12:35 AM 44.6 °F 37.4 °F 10.4 °F 25% 30.41 in 10.0 mi SSW 16.1 mph 21.9 mph N/A   Clear
12:55 AM 44.6 °F 38.8 °F 10.4 °F 25% 30.40 in 10.0 mi SW 11.5 mph 20.7 mph N/A   Clear
1:15 AM 44.6 °F 38.8 °F 10.4 °F 25% 30.40 in 10.0 mi SW 11.5 mph 21.9 mph N/A   Clear
1:35 AM 44.6 °F 38.4 °F 10.4 °F 25% 30.40 in 10.0 mi SW 12.7 mph 20.7 mph N/A   Clear
1:55 AM 44.6 °F 38.4 °F 10.4 °F 25% 30.40 in 10.0 mi SSW 12.7 mph 18.4 mph N/A   Clear
2:15 AM 44.6 °F 41.4 °F 10.4 °F 25% 30.40 in 10.0 mi SW 5.8 mph 21.9 mph N/A   Clear
2:35 AM 44.6 °F 39.7 °F 10.4 °F 25% 30.39 in 10.0 mi WSW 9.2 mph 21.9 mph N/A   Clear
2:55 AM 42.8 °F 36.6 °F 10.4 °F 27% 30.39 in 10.0 mi WSW 11.5 mph 17.3 mph N/A   Clear
3:15 AM 42.8 °F 35.8 °F 8.6 °F 25% 30.39 in 10.0 mi SW 13.8 mph 18.4 mph N/A   Clear
3:35 AM 42.8 °F 37.0 °F 8.6 °F 25% 30.38 in 10.0 mi WSW 10.4 mph 19.6 mph N/A   Clear
3:55 AM 42.8 °F 37.5 °F 8.6 °F 25% 30.38 in 10.0 mi West 9.2 mph 26.5 mph N/A   Clear
4:15 AM 42.8 °F 35.8 °F 8.6 °F 25% 30.38 in 10.0 mi West 13.8 mph 19.6 mph N/A   Clear
4:35 AM 42.8 °F 35.1 °F 8.6 °F 25% 30.38 in 10.0 mi West 16.1 mph 21.9 mph N/A   Clear
4:55 AM 42.8 °F 34.5 °F 8.6 °F 25% 30.38 in 10.0 mi West 18.4 mph 24.2 mph N/A   Clear
5:15 AM 41.0 °F 32.8 °F 6.8 °F 24% 30.38 in 10.0 mi West 16.1 mph - N/A   Clear
5:35 AM 41.0 °F 33.5 °F 6.8 °F 24% 30.38 in 10.0 mi West 13.8 mph 20.7 mph N/A   Clear
5:55 AM 41.0 °F 35.8 °F 6.8 °F 24% 30.40 in 10.0 mi WSW 8.1 mph 18.4 mph N/A   Clear
6:15 AM 42.8 °F 40.1 °F 8.6 °F 25% 30.41 in 10.0 mi SSW 4.6 mph 19.6 mph N/A   Clear
6:35 AM 41.0 °F 35.2 °F 8.6 °F 26% 30.41 in 10.0 mi SW 9.2 mph - N/A   Clear
6:55 AM 41.0 °F 33.5 °F 6.8 °F 24% 30.42 in 10.0 mi SW 13.8 mph 19.6 mph N/A   Clear
7:15 AM 42.8 °F 37.0 °F 8.6 °F 25% 30.43 in 10.0 mi SSW 10.4 mph 18.4 mph N/A   Clear
7:35 AM 42.8 °F 40.1 °F 8.6 °F 25% 30.44 in 10.0 mi South 4.6 mph - N/A   Clear
7:55 AM 42.8 °F 38.0 °F 8.6 °F 25% 30.44 in 10.0 mi South 8.1 mph 17.3 mph N/A   Clear
8:15 AM 42.8 °F 41.1 °F 8.6 °F 25% 30.45 in 10.0 mi SSW 3.5 mph - N/A   Clear
8:35 AM 44.6 °F 40.2 °F 10.4 °F 25% 30.45 in 10.0 mi South 8.1 mph 18.4 mph N/A   Clear
8:55 AM 44.6 °F 41.4 °F 10.4 °F 25% 30.45 in 10.0 mi South 5.8 mph 23.0 mph N/A   Clear
9:15 AM 44.6 °F 38.4 °F 10.4 °F 25% 30.45 in 10.0 mi South 12.7 mph 23.0 mph N/A   Clear
9:35 AM 44.6 °F 40.7 °F 10.4 °F 25% 30.45 in 10.0 mi South 6.9 mph 25.3 mph N/A   Clear
9:55 AM 46.4 °F 41.5 °F 12.2 °F 25% 30.45 in 10.0 mi South 10.4 mph 23.0 mph N/A   Clear
10:15 AM 48.2 °F - 12.2 °F 24% 30.45 in 10.0 mi East 16.1 mph 24.2 mph N/A   Clear
10:35 AM 46.4 °F 40.7 °F 12.2 °F 25% 30.45 in 10.0 mi ESE 12.7 mph 23.0 mph N/A   Clear
10:55 AM 48.2 °F - 14.0 °F 25% 30.46 in 10.0 mi ESE 18.4 mph 23.0 mph N/A   Clear
11:15 AM 48.2 °F - 14.0 °F 25% 30.46 in 10.0 mi East 12.7 mph 20.7 mph N/A   Clear
11:35 AM 48.2 °F - 14.0 °F 25% 30.46 in 10.0 mi SSE 6.9 mph - N/A   Clear
11:55 AM 50.0 °F - 14.0 °F 24% 30.46 in 10.0 mi South 5.8 mph - N/A   Clear
12:15 PM 50.0 °F - 14.0 °F 24% 30.47 in 10.0 mi SE 21.9 mph 28.8 mph N/A   Clear
12:35 PM 51.8 °F - 15.8 °F 24% 30.46 in 10.0 mi SE 18.4 mph 29.9 mph N/A   Clear
12:55 PM 50.0 °F - 15.8 °F 26% 30.46 in 10.0 mi SSE 11.5 mph 24.2 mph N/A   Scattered Clouds
1:15 PM 50.0 °F - 15.8 °F 26% 30.46 in 10.0 mi ESE 16.1 mph 27.6 mph N/A   Mostly Cloudy
1:35 PM 51.8 °F - 17.6 °F 26% 30.46 in 10.0 mi East 16.1 mph 20.7 mph N/A   Mostly Cloudy
1:55 PM 51.8 °F - 17.6 °F 26% 30.46 in 10.0 mi SSW 8.1 mph 28.8 mph N/A   Mostly Cloudy
2:15 PM 51.8 °F - 15.8 °F 24% 30.47 in 10.0 mi ESE 13.8 mph - N/A   Mostly Cloudy
2:35 PM 50.0 °F - 14.0 °F 24% 30.46 in 10.0 mi North 3.5 mph 17.3 mph N/A   Mostly Cloudy
2:55 PM 48.2 °F - 14.0 °F 25% 30.46 in 10.0 mi East 18.4 mph - N/A   Overcast
3:15 PM 48.2 °F - 14.0 °F 25% 30.46 in 10.0 mi East 12.7 mph - N/A   Overcast
3:35 PM 48.2 °F - 14.0 °F 25% 30.46 in 10.0 mi ESE 21.9 mph - N/A   Mostly Cloudy
3:55 PM 46.4 °F 39.8 °F 12.2 °F 25% 30.45 in 10.0 mi ENE 16.1 mph 34.5 mph N/A   Mostly Cloudy
4:15 PM 46.4 °F 38.7 °F 12.2 °F 25% 30.44 in 10.0 mi East 20.7 mph 31.1 mph N/A   Overcast
4:35 PM 46.4 °F 38.7 °F 12.2 °F 25% 30.45 in 10.0 mi East 20.7 mph 28.8 mph N/A   Overcast
4:55 PM 46.4 °F 37.7 °F 12.2 °F 25% 30.46 in 10.0 mi ESE 26.5 mph - N/A   Overcast
5:15 PM 46.4 °F 39.2 °F 12.2 °F 25% 30.45 in 10.0 mi East 18.4 mph 27.6 mph N/A   Mostly Cloudy
5:35 PM 46.4 °F 39.0 °F 12.2 °F 25% 30.46 in 10.0 mi ESE 19.6 mph - N/A   Mostly Cloudy
5:55 PM 46.4 °F - 12.2 °F 25% 30.46 in 10.0 mi Calm Calm - N/A   Mostly Cloudy
6:15 PM 46.4 °F 41.9 °F 12.2 °F 25% 30.46 in 10.0 mi NE 9.2 mph - N/A   Overcast
6:35 PM 46.4 °F 39.5 °F 12.2 °F 25% 30.46 in 10.0 mi East 17.3 mph - N/A   Mostly Cloudy
6:55 PM 46.4 °F 41.1 °F 12.2 °F 25% 30.47 in 10.0 mi ESE 11.5 mph - N/A   Overcast
7:15 PM 46.4 °F 39.8 °F 12.2 °F 25% 30.46 in 10.0 mi East 16.1 mph 20.7 mph N/A   Mostly Cloudy
7:35 PM 46.4 °F 40.4 °F 12.2 °F 25% 30.47 in 10.0 mi East 13.8 mph - N/A   Mostly Cloudy
7:55 PM 46.4 °F 43.5 °F 12.2 °F 25% 30.48 in 10.0 mi East 5.8 mph - N/A   Mostly Cloudy
8:15 PM 46.4 °F 43.5 °F 12.2 °F 25% 30.49 in 10.0 mi ESE 5.8 mph - N/A   Mostly Cloudy
8:35 PM 46.4 °F - 12.2 °F 25% 30.49 in 10.0 mi Calm Calm - N/A   Overcast
8:55 PM 46.4 °F 41.5 °F 12.2 °F 25% 30.49 in 10.0 mi East 10.4 mph - N/A   Mostly Cloudy
9:15 PM 44.6 °F 43.1 °F 12.2 °F 27% 30.50 in 10.0 mi East 3.5 mph - N/A   Scattered Clouds
9:35 PM 46.4 °F - 12.2 °F 25% 30.50 in 10.0 mi Calm Calm - N/A   Scattered Clouds
9:55 PM 44.6 °F 40.7 °F 12.2 °F 27% 30.49 in 10.0 mi West 6.9 mph - N/A   Clear
10:15 PM 44.6 °F 41.4 °F 10.4 °F 25% 30.51 in 10.0 mi ESE 5.8 mph - N/A   Clear
10:35 PM 44.6 °F 39.7 °F 10.4 °F 25% 30.50 in 10.0 mi ENE 9.2 mph - N/A   Clear
10:55 PM 44.6 °F 38.4 °F 10.4 °F 25% 30.51 in 10.0 mi ENE 12.7 mph - N/A   Clear
11:15 PM 42.8 °F 39.3 °F 10.4 °F 27% 30.51 in 10.0 mi East 5.8 mph - N/A   Clear
11:35 PM 44.6 °F - 10.4 °F 25% 30.50 in 10.0 mi Calm Calm - N/A   Clear
11:55 PM 44.6 °F 39.7 °F 10.4 °F 25% 30.50 in 10.0 mi East 9.2 mph - N/A   Clear